Hourly Data Report for November 02, 2019

All times are specified in Local Standard Time (LST). Add 1 hour to adjust for Daylight Saving Time where and when it is observed.

QUALICUM BEACH AIRPORT
BRITISH COLUMBIA
Current Station Operator: ECCC - MSC

49°20'14.000" N
124°23'38.000" W
58.20 m
1026562
71766
VOQ

Download Data

Hourly Data (November 2019)
Hourly Data Report for November 2, 2019
TIME Temp Definition
°C
Dew Point Definition
°C
Rel Hum Definition
%
Wind Dir Definition
10's deg

Wind Spd Definition
km/h
Visibility Definition
km
Stn Press Definition
kPa
Hmdx Definition


Wind Chill Definition


Weather Definition


00:00 2.4 2.0 97 23 2   102.26     LegendNANA
01:00 2.2 1.9 97 23 2   102.24     LegendNANA
02:00 2.4 2.0 98 27 3   102.21     LegendNANA
03:00 1.5 1.2 97 21 1   102.18     LegendNANA
04:00 2.6 2.2 97 25 2   102.14     LegendNANA
05:00 1.6 1.2 97 15 1   102.08     LegendNANA
06:00 2.1 1.7 98 24 1   102.07     LegendNANA
07:00 1.5 1.2 97   0   102.05     LegendNANA
08:00 2.4 2.1 98 0 1   102.05     LegendNANA
09:00 6.1 5.4 95   0   102.10     LegendNANA
10:00 10.1 6.3 77 0 1   102.05     LegendNANA
11:00 10.7 7.2 79 31 10   102.05     LegendNANA
12:00 11.3 7.3 76 34 12   101.94     LegendNANA
13:00 11.4 7.3 76 33 12   101.88     LegendNANA
14:00 11.5 7.7 77 33 13   101.85     LegendNANA
15:00 11.4 7.7 78 32 7   101.78     LegendNANA
16:00 10.5 7.4 81 32 6   101.72     LegendNANA
17:00 8.3 6.5 89 27 4   101.69     LegendNANA
18:00 7.0 5.9 93 25 3   101.69     LegendNANA
19:00 7.1 5.8 91 23 5   101.68     LegendNANA
20:00 7.1 6.2 94 26 2   101.68     LegendNANA
21:00 7.4 6.6 94 25 4   101.69     LegendNANA
22:00 7.9 7.0 94 25 4   101.69     LegendNANA
23:00 7.9 6.9 94 24 2   101.70     LegendNANA

Notes on Data Quality.

Legend

  • E = Estimated
  • M = Missing
  • NA = Not Available
Date modified: